Tracking 18942 objects as of 17-Jan-2018
HD Live streaming from Space Station
objects crossing your sky now

NIMBUS 2 DEB

Track NIMBUS 2 DEB now!
10-day predictions


NORAD ID: 28615
Int'l Code: 1966-040AE
Perigee: 982.6 km
Apogee: 1,051.4 km
Inclination: 100.3 °
Period: 105.3 minutes
Semi major axis: 7387 km
RCS: 0.0093 m2 (small)
Launch date: May 15, 1966
Source: United States (US)
Launch site: AIR FORCE WESTERN TEST RANGE (AFWTR)

Note: This is SATELLITE DEBRIS
aabbcc
Your satellite tracking list
Your tracking list is empty




NASA's NSSDC Master Catalog

Two Line Element Set (TLE):
1 28615U 66040AE  18015.48539560 +.00001482 +00000-0 +18134-2 0  9997
2 28615 100.2661 256.8470 0046567 034.3006 089.7494 13.67142387183832
Source of the keplerian elements: AFSPC